Location: Boiro
(42.6475°N, 8.8834°W)
Time: 15:07:21
(UTC+01:00)

Explorer 11/Cluster Stage 4 - Pass Details

Date: 09 December 2021
Orbit: 467 x 1255 km, 28.8° (Epoch: 21 January)

Event Time Altitude Azimuth Distance (km) Brightness Sun altitude
Rises 01:34:06 0° 219° (SW) 2,887 - -70.1°
Reaches altitude 10° 01:37:18 10° 194° (SSW) 2,134 - -70.1°
Maximum altitude 01:39:58 14° 162° (SSE) 1,980 - -70.0°
Drops below altitude 10° 01:42:55 10° 131° (SE) 2,416 - -69.9°
Sets 01:46:56 0° 108° (ESE) 3,555 - -69.8°
